FW7071 Weather Reports


Display with metric or nautical units.
time (UTC)temp
F
wind
direction
speed
MPH
gust
MPH
rain 1hr
in
rain 24hr
in
rain mn
in
humidity
%
barometer
mb
20260904052223 76 208 0.0 0.0 0.00 0.01 0.01 96 1014.5
20260904051720 76 208 0.0 0.0 0.00 0.01 0.01 97 1014.4
20260904051215 76 217 0.0 0.0 0.00 0.01 0.01 97 1014.4
20260904050714 77 180 0.0 0.0 0.00 0.01 0.01 97 1014.1
20260904050211 77 215 0.0 0.0 0.00 0.01 0.01 96 1014.1
20260904045711 77 215 0.0 0.0 0.00 0.01 0.01 96 1014.2
20260904045206 77 227 1.0 1.0 0.00 0.01 0.01 96 1013.9
20260904044701 78 264 1.0 2.0 0.00 0.01 0.01 95 1014.0
20260904044157 77 246 2.0 2.0 0.00 0.01 0.01 96 1013.6
20260904043654 77 232 2.0 2.0 0.07 0.01 0.01 97 1013.7
20260904043149 76 210 3.0 3.0 0.07 0.01 0.01 97 1013.6
20260904042645 76 241 0.0 0.0 0.00 0.00 0.00 98 1014.0
20260904042140 76 296 2.0 2.0 0.00 0.00 0.00 98 1014.2
20260904041635 76 209 0.0 0.0 0.00 0.00 0.00 97 1014.3
20260904041132 76 342 0.0 1.0 0.00 0.00 0.00 97 1014.6
20260904040627 77 222 1.0 1.0 0.00 0.00 0.00 96 1014.4
20260904040123 77 201 1.0 1.0 0.00 0.00 0.00 95 1014.6
20260904035619 78 222 2.0 3.0 0.00 1.04 1.04 92 1014.8
20260904035118 78 225 1.0 1.0 0.00 1.04 1.04 91 1014.6
20260904034613 78 240 1.0 1.0 0.00 1.04 1.04 91 1014.8
20260904034108 78 250 0.0 0.0 0.00 1.04 1.04 90 1014.4
20260904033604 78 263 1.0 1.0 0.00 1.04 1.04 90 1014.6
20260904033101 78 214 0.0 1.0 0.00 1.04 1.04 90 1014.7
20260904032556 78 227 0.0 0.0 0.00 1.04 1.04 90 1014.8
20260904032055 78 255 1.0 2.0 0.00 1.04 1.04 90 1014.9
20260904031555 78 279 1.0 1.0 0.00 1.04 1.04 90 1015.1
20260904031051 78 222 2.0 2.0 0.00 1.04 1.04 91 1015.0
20260904030547 78 266 1.0 2.0 0.00 1.04 1.04 91 1015.2
20260904030042 78 235 3.0 3.0 0.00 1.04 1.04 91 1015.3
20260904025537 78 218 2.0 2.0 0.00 1.04 1.04 91 1015.2
20260904025032 77 249 3.0 5.0 0.00 1.04 1.04 91 1015.1
20260904024527 77 230 1.0 2.0 0.00 1.04 1.04 92 1015.0
20260904024023 77 287 1.0 2.0 0.00 1.04 1.04 92 1014.7
20260904023519 77 229 1.0 1.0 0.00 1.04 1.04 92 1015.0
20260904023014 77 233 1.0 1.0 0.00 1.04 1.04 92 1015.0
20260904022509 77 229 1.0 1.0 0.00 1.04 1.04 92 1014.6
20260904022006 77 201 0.0 0.0 0.00 1.04 1.04 93 1014.7
20260904021502 77 201 0.0 0.0 0.00 1.04 1.04 93 1014.7
20260904020956 77 200 0.0 0.0 0.00 1.04 1.04 93 1014.9
20260904020452 77 200 0.0 0.0 0.00 1.04 1.04 92 1015.0
20260904015950 77 200 0.0 0.0 0.00 1.04 1.04 92 1015.5
20260904015445 78 200 0.0 0.0 0.00 1.04 1.04 91 1015.2
20260904014944 78 204 0.0 1.0 0.00 1.04 1.04 90 1015.3
20260904014439 79 252 0.0 0.0 0.00 1.04 1.04 89 1015.3
20260904013935 79 223 1.0 1.0 0.00 1.04 1.04 89 1015.1
20260904013430 79 224 1.0 1.0 0.00 1.04 1.04 88 1015.1
20260904012927 79 224 1.0 2.0 0.00 1.04 1.04 89 1015.1
20260904012420 79 256 0.0 0.0 0.00 1.04 1.04 89 1015.2
20260904011915 79 239 1.0 1.0 0.00 1.04 1.04 89 1015.4
20260904011410 79 242 1.0 2.0 0.00 1.04 1.04 88 1015.2
20260904010905 80 227 0.0 1.0 0.00 1.04 1.04 88 1015.3
20260904010402 79 258 2.0 2.0 0.00 1.04 1.04 88 1015.7
20260904005902 79 261 0.0 1.0 0.00 1.04 1.04 89 1015.6
20260904005352 79 240 1.0 1.0 0.00 1.04 1.04 89 1015.6
20260904004847 80 224 2.0 2.0 0.00 1.04 1.04 88 1015.6
20260904004343 80 245 1.0 1.0 0.00 1.04 1.04 88 1015.1
20260904003843 80 237 1.0 2.0 0.00 1.04 1.04 87 1015.5
20260904003339 80 234 0.0 1.0 0.00 1.04 1.04 87 1015.6
20260904002834 80 242 0.0 0.0 0.00 1.04 1.04 87 1015.2
20260904002331 80 217 2.0 2.0 0.00 1.04 1.04 87 1015.4
20260904001829 80 225 1.0 1.0 0.00 1.04 1.04 86 1015.2
20260904001325 80 258 2.0 3.0 0.00 1.04 1.04 86 1015.0
20260904000820 80 230 1.0 2.0 0.00 1.04 1.04 86 1015.0
20260904000319 80 219 1.0 1.0 0.00 1.04 1.04 86 1014.8
20260903235814 80 219 1.0 1.0 0.00 1.04 1.04 87 1014.8
20260903235311 80 220 1.0 1.0 0.00 1.04 1.04 88 1015.1
20260903234810 79 216 0.0 0.0 0.00 1.04 1.04 87 1014.8
20260903234306 80 214 0.0 0.0 0.00 1.04 1.04 87 1014.6
20260903233802 81 214 0.0 0.0 0.00 1.04 1.04 85 1014.8
20260903233258 81 215 0.0 0.0 0.00 1.04 1.04 83 1014.9
20260903232756 82 220 0.0 1.0 0.00 1.04 1.04 82 1014.9
20260903232253 82 207 0.0 1.0 0.00 1.04 1.04 82 1015.0
20260903231751 82 289 2.0 2.0 0.00 1.04 1.04 81 1015.2
20260903231246 82 237 3.0 3.0 0.00 1.04 1.04 81 1014.9
20260903230742 82 238 1.0 1.0 0.00 1.04 1.04 81 1015.2
20260903230237 83 242 3.0 3.0 0.00 1.04 1.04 80 1015.0
20260903225733 83 261 3.0 3.0 0.00 1.04 1.04 80 1015.0
20260903225229 83 221 1.0 2.0 0.00 1.04 1.04 79 1014.5
20260903224726 83 232 2.0 2.0 0.00 1.04 1.04 79 1014.6
20260903224221 84 223 2.0 2.0 0.00 1.04 1.04 79 1014.5
20260903223716 84 244 2.0 2.0 0.00 1.04 1.04 78 1014.7
20260903223215 85 302 2.0 2.0 0.00 1.04 1.04 78 1014.6
20260903222709 85 223 3.0 5.0 0.00 1.04 1.04 76 1014.5
20260903222209 86 238 3.0 3.0 0.00 1.04 1.04 76 1014.5
20260903221703 86 256 1.0 2.0 0.00 1.04 1.04 75 1014.8
20260903221202 86 266 4.0 6.0 0.00 1.04 1.04 75 1014.6
20260903220700 86 306 2.0 3.0 0.00 1.04 1.04 75 1014.4
20260903220155 86 248 2.0 2.0 0.00 1.04 1.04 75 1014.6
20260903215654 87 266 3.0 5.0 0.00 1.04 1.04 75 1014.6
20260903215150 87 290 2.0 3.0 0.00 1.04 1.04 75 1014.6
20260903214648 86 221 1.0 1.0 0.00 1.04 1.04 76 1014.2
20260903214144 87 240 3.0 5.0 0.00 1.04 1.04 74 1014.2
20260903213639 87 251 1.0 2.0 0.00 1.04 1.04 75 1014.2
20260903213135 86 278 3.0 3.0 0.00 1.04 1.04 74 1014.0
20260903212631 87 223 0.0 1.0 0.00 1.04 1.04 75 1014.1
20260903212126 88 285 4.0 5.0 0.00 1.04 1.04 72 1014.0
20260903211625 87 249 0.0 1.0 0.00 1.04 1.04 74 1013.9
20260903211123 86 260 1.0 1.0 0.00 1.04 1.04 75 1013.8
20260903210618 87 244 1.0 2.0 0.00 1.04 1.04 75 1014.0
20260903210114 87 278 2.0 2.0 0.00 1.04 1.04 74 1013.9
20260903205613 87 250 3.0 3.0 0.00 1.04 1.04 74 1014.3
20260903205112 88 236 3.0 3.0 0.00 1.04 1.04 74 1014.1
20260903204609 88 216 1.0 1.0 0.00 1.04 1.04 72 1014.4
20260903204104 89 314 4.0 6.0 0.00 1.04 1.04 71 1014.3
20260903203600 89 267 3.0 5.0 0.00 1.04 1.04 74 1014.3
20260903203059 88 296 2.0 2.0 0.00 1.04 1.04 71 1014.3
20260903202556 88 257 2.0 3.0 0.00 1.04 1.04 72 1014.3
20260903202051 88 291 3.0 3.0 0.00 1.04 1.04 72 1014.7
20260903201551 87 257 3.0 3.0 0.00 1.04 1.04 74 1014.6
20260903201050 87 250 6.0 7.0 0.00 1.04 1.04 73 1014.5
20260903200546 87 293 3.0 5.0 0.00 1.04 1.04 74 1014.6
20260903200040 86 255 4.0 6.0 0.00 1.04 1.04 75 1014.6
20260903195536 86 293 4.0 5.0 0.00 1.04 1.04 75 1014.6
20260903195032 86 272 2.0 3.0 0.00 1.04 1.04 74 1014.6
20260903194527 86 270 3.0 5.0 0.00 1.04 1.04 74 1014.7
20260903194022 86 308 2.0 3.0 0.00 1.04 1.04 75 1014.9
20260903193519 86 298 4.0 5.0 0.00 1.04 1.04 74 1014.8
20260903193014 86 208 2.0 2.0 0.00 1.04 1.04 74 1014.7
20260903192510 87 239 1.0 2.0 0.00 1.04 1.04 74 1014.9
20260903192004 86 223 4.0 5.0 0.00 1.04 1.04 75 1014.9
20260903191500 87 273 4.0 6.0 0.00 1.04 1.04 74 1015.1
20260903190955 87 273 2.0 2.0 0.00 1.04 1.04 75 1015.1
20260903190454 87 227 1.0 1.0 0.00 1.04 1.04 74 1015.3
20260903185948 87 218 5.0 6.0 0.00 1.04 1.04 74 1015.3
20260903185445 86 295 3.0 5.0 0.00 1.04 1.04 75 1015.3
20260903184944 87 295 3.0 5.0 0.00 1.04 1.04 74 1015.4
20260903184442 86 283 5.0 7.0 0.00 1.04 1.04 76 1015.3
20260903183936 86 246 4.0 5.0 0.00 1.04 1.04 76 1015.5
20260903183430 86 279 4.0 7.0 0.00 1.04 1.04 75 1015.4
20260903182930 85 230 3.0 5.0 0.00 1.04 1.04 77 1015.5
20260903182428 85 246 5.0 7.0 0.00 1.04 1.04 76 1015.4
20260903181924 85 307 5.0 6.0 0.00 1.04 1.04 77 1015.5
20260903181418 85 321 9.0 10.0 0.00 1.04 1.04 77 1015.7
20260903180918 85 309 8.0 10.0 0.00 1.04 1.04 77 1015.7
20260903180413 85 216 4.0 6.0 0.00 1.04 1.04 78 1015.8
20260903175912 85 313 6.0 8.0 0.00 1.04 1.04 77 1015.9
20260903175407 85 238 3.0 3.0 0.00 1.04 1.04 78 1016.1
20260903174901 84 286 3.0 3.0 0.00 1.04 1.04 78 1015.7
20260903174356 84 249 4.0 5.0 0.00 1.04 1.04 78 1015.7
20260903173857 83 307 5.0 6.0 0.00 1.04 1.04 78 1016.0
20260903173352 84 259 6.0 8.0 0.00 1.04 1.04 78 1016.0
20260903172848 83 255 5.0 8.0 0.00 1.04 1.04 78 1016.0
20260903172342 84 275 8.0 9.0 0.00 1.04 1.04 78 1016.4
20260903171838 83 296 7.0 9.0 0.00 1.04 1.04 78 1016.2
20260903171333 84 290 8.0 10.0 0.00 1.04 1.04 79 1016.3
20260903170832 84 268 3.0 5.0 0.00 1.04 1.04 79 1016.1
20260903170328 83 286 2.0 3.0 0.00 1.04 1.04 80 1016.4
20260903165826 82 231 3.0 3.0 0.00 1.04 1.04 80 1016.4
20260903165325 82 328 7.0 7.0 0.00 1.04 1.04 79 1016.7
20260903164820 82 261 3.0 5.0 0.00 1.04 1.04 81 1016.9
20260903164316 82 40 3.0 5.0 0.00 1.04 1.04 80 1016.9
20260903163815 82 266 6.0 8.0 0.00 1.04 1.04 80 1017.1
20260903163312 82 222 7.0 10.0 0.00 1.04 1.04 79 1016.9
20260903162807 82 228 4.0 5.0 0.00 1.04 1.04 81 1017.1
20260903162306 82 307 10.0 13.0 0.00 1.04 1.04 83 1016.9
20260903161759 81 302 5.0 7.0 0.00 1.04 1.04 85 1017.1
20260903161254 80 239 2.0 3.0 0.00 1.04 1.04 86 1017.2
20260903160749 80 190 1.0 2.0 0.00 1.04 1.04 88 1017.3
20260903160248 80 222 3.0 3.0 0.00 1.04 1.04 89 1017.3
20260903155747 80 258 5.0 6.0 0.00 1.04 1.04 88 1017.7
20260903155242 79 274 3.0 3.0 0.00 1.04 1.04 90 1017.7
20260903154738 79 259 5.0 7.0 0.00 1.04 1.04 91 1018.1
20260903154234 78 252 3.0 3.0 0.00 1.04 1.04 92 1018.1
20260903153729 78 247 4.0 5.0 0.00 1.04 1.04 92 1018.2
20260903153225 78 298 4.0 5.0 0.00 1.04 1.04 93 1018.1
20260903152721 78 299 3.0 3.0 0.00 1.04 1.04 94 1018.1
20260903152217 77 245 2.0 3.0 0.00 1.04 1.04 94 1018.3
20260903151716 77 314 6.0 9.0 0.00 1.04 1.04 94 1017.9
20260903151212 77 313 5.0 7.0 0.00 1.04 1.04 94 1017.9
20260903150707 78 316 5.0 7.0 0.00 1.04 1.04 93 1017.9
20260903150202 78 282 8.0 10.0 0.00 1.04 1.04 93 1017.8
20260903145701 77 229 5.0 6.0 0.00 1.04 1.04 94 1018.2
20260903145157 77 282 5.0 6.0 0.00 1.04 1.04 95 1018.1
20260903144656 77 219 2.0 2.0 0.00 1.04 1.04 95 1018.2
20260903144152 76 267 6.0 7.0 0.00 1.04 1.04 95 1018.6
20260903143648 76 273 3.0 6.0 0.00 1.04 1.04 95 1018.1
20260903143143 76 309 4.0 5.0 0.00 1.04 1.04 96 1018.3
20260903142639 76 291 4.0 6.0 0.00 1.04 1.04 95 1018.3
20260903142136 76 312 4.0 5.0 0.00 1.04 1.04 95 1017.9
20260903141630 76 169 1.0 1.0 0.00 1.04 1.04 96 1017.9
20260903141125 75 167 2.0 2.0 0.00 1.04 1.04 96 1018.0
20260903140622 75 246 3.0 3.0 0.00 1.04 1.04 97 1018.0
20260903140117 75 228 2.0 2.0 0.00 1.04 1.04 97 1018.0
20260903135612 75 284 4.0 5.0 0.00 1.04 1.04 97 1017.8
20260903135107 74 297 6.0 7.0 0.00 1.04 1.04 97 1017.6
20260903134605 74 318 1.0 2.0 0.00 1.04 1.04 98 1017.5
20260903134101 74 241 3.0 3.0 0.00 1.04 1.04 98 1017.7
20260903133559 73 258 3.0 3.0 0.00 1.04 1.04 99 1017.7
20260903133055 73 281 1.0 2.0 0.00 1.04 1.04 99 1017.4
20260903132550 73 242 2.0 3.0 0.00 1.04 1.04 99 1017.4
20260903132044 73 301 2.0 2.0 0.00 1.04 1.04 99 1017.4
20260903131544 72 182 0.0 1.0 0.00 1.04 1.04 99 1017.4
20260903131038 72 314 2.0 2.0 0.00 1.04 1.04 99 1017.3
20260903130532 72 271 2.0 2.0 0.00 1.04 1.04 99 1017.5
20260903130033 71 315 3.0 3.0 0.00 1.04 1.04 99 1017.4
20260903125531 71 242 2.0 3.0 0.00 1.04 1.04 99 1017.4
20260903125027 71 308 3.0 5.0 0.00 1.04 1.04 99 1017.5
20260903124526 70 303 2.0 2.0 0.00 1.04 1.04 99 1017.3
20260903124021 70 291 1.0 1.0 0.00 1.04 1.04 99 1017.7
20260903123520 70 246 2.0 2.0 0.00 1.04 1.04 99 1017.7
20260903123020 69 259 3.0 5.0 0.00 1.04 1.04 99 1017.6
20260903122514 69 246 1.0 2.0 0.00 1.04 1.04 99 1017.5
20260903122013 69 252 4.0 6.0 0.00 1.04 1.04 99 1017.6
20260903121509 69 219 2.0 2.0 0.00 1.04 1.04 99 1017.5
20260903121005 69 224 3.0 5.0 0.00 1.04 1.04 99 1017.6
20260903120503 69 296 1.0 1.0 0.00 1.04 1.04 99 1017.5
20260903120002 69 317 2.0 2.0 0.00 1.04 1.04 99 1017.4
20260903115456 69 278 3.0 6.0 0.00 1.04 1.04 99 1017.2
20260903114955 69 269 3.0 3.0 0.00 1.04 1.04 99 1017.3
20260903114451 68 332 2.0 2.0 0.00 1.04 1.04 99 1016.8
20260903113946 68 112 1.0 2.0 0.00 1.04 1.04 99 1016.3
20260903113442 68 259 5.0 7.0 0.00 1.04 1.04 99 1016.9
20260903112937 68 214 3.0 3.0 0.00 1.04 1.04 99 1016.1
20260903112433 68 200 0.0 0.0 0.00 1.04 1.04 99 1017.1
20260903111932 68 239 1.0 2.0 0.00 1.04 1.04 99 1017.3
20260903111427 68 217 1.0 1.0 0.00 1.04 1.04 99 1017.3
20260903110923 68 251 0.0 1.0 0.00 1.04 1.04 99 1017.8
20260903110419 68 197 0.0 0.0 0.00 1.04 1.04 99 1017.7
20260903105919 68 283 2.0 3.0 0.00 1.04 1.04 99 1017.9
20260903105415 68 218 0.0 1.0 0.00 1.04 1.04 99 1018.1
20260903104914 68 199 0.0 1.0 0.00 1.04 1.04 99 1018.0
20260903104408 68 232 1.0 2.0 0.00 1.04 1.04 99 1018.5
20260903103906 68 285 2.0 2.0 0.00 1.04 1.04 99 1018.7
20260903103401 68 240 2.0 3.0 0.00 1.04 1.04 99 1018.8
20260903102856 68 275 2.0 2.0 0.00 1.04 1.04 99 1018.7
20260903102351 68 312 3.0 6.0 0.00 1.04 1.04 99 1018.7
20260903101850 68 275 3.0 3.0 0.00 1.04 1.04 99 1018.6
20260903101345 68 256 3.0 3.0 0.00 1.04 1.04 99 1018.7
20260903100835 68 235 3.0 3.0 0.00 1.04 1.04 99 1018.4
20260903100335 68 240 4.0 6.0 0.00 1.04 1.04 99 1018.2
20260903095827 68 281 3.0 3.0 0.00 1.04 1.04 99 1018.3
20260903095326 68 218 2.0 2.0 0.00 1.04 1.04 99 1018.3
20260903094822 68 299 1.0 2.0 0.00 1.04 1.04 99 1018.4
20260903094317 68 225 2.0 3.0 0.00 1.04 1.04 99 1018.1
20260903093813 68 223 1.0 2.0 0.00 1.04 1.04 99 1017.9
20260903093308 67 211 0.0 1.0 0.05 1.04 1.04 99 1018.1
20260903092807 67 253 4.0 6.0 0.12 1.04 1.04 99 1018.0
20260903092306 67 82 1.0 1.0 0.05 1.02 1.02 99 1017.4
20260903091802 67 239 2.0 3.0 0.07 1.01 1.01 99 1017.9
20260903091255 67 208 1.0 2.0 0.19 1.01 1.01 99 1018.1
20260903090752 67 143 1.0 2.0 0.24 0.99 0.99 99 1018.1
20260903090250 67 115 1.0 1.0 0.17 0.97 0.97 99 1018.4
20260903085749 67 200 0.0 1.0 0.17 0.95 0.95 99 1018.7
20260903085244 68 203 0.0 1.0 0.17 0.93 0.93 99 1018.4
20260903084742 68 201 2.0 2.0 0.19 0.92 0.92 99 1018.3
20260903084237 68 219 2.0 3.0 0.19 0.90 0.90 99 1018.6
20260903083733 68 180 0.0 1.0 0.19 0.88 0.88 99 1018.5
20260903083233 68 164 0.0 0.0 0.12 0.87 0.87 99 1018.3
20260903082732 68 165 0.0 0.0 0.12 0.85 0.85 99 1018.5
20260903082228 68 222 1.0 1.0 0.24 0.85 0.85 99 1019.2
20260903081728 68 166 1.0 2.0 0.31 0.83 0.83 99 1019.2
20260903081223 68 234 0.0 1.0 0.42 0.81 0.81 99 1020.0
20260903080720 68 287 1.0 2.0 0.31 0.77 0.77 99 1020.2
20260903080217 68 239 3.0 3.0 0.05 0.73 0.73 99 1019.6
20260903075716 68 177 0.0 0.0 0.07 0.72 0.72 99 1019.2
20260903075212 68 111 0.0 1.0 0.24 0.72 0.72 99 1019.6
20260903074710 68 294 2.0 3.0 0.66 0.71 0.71 99 1020.0
20260903074206 68 81 0.0 1.0 0.50 0.66 0.66 99 1020.0
20260903073701 68 301 3.0 5.0 0.24 0.60 0.60 99 1020.5
20260903073156 68 146 0.0 1.0 0.17 0.58 0.58 99 1019.9
20260903072652 68 179 0.0 0.0 0.05 0.56 0.56 99 1019.3
20260903072148 68 284 0.0 0.0 0.00 0.55 0.55 99 1019.2
20260903071644 68 273 1.0 1.0 0.00 0.55 0.55 99 1019.4
20260903071140 68 212 1.0 1.0 0.00 0.55 0.55 99 1019.2
20260903070639 68 220 0.0 1.0 0.00 0.55 0.55 99 1019.2
20260903070136 68 222 1.0 1.0 0.00 0.55 0.55 99 1019.0
20260903065635 68 191 0.0 1.0 0.00 0.55 0.55 99 1018.9
20260903065130 68 185 0.0 0.0 0.00 0.55 0.55 99 1019.0
20260903064629 68 169 0.0 0.0 0.00 0.55 0.55 99 1019.0
20260903064125 68 209 0.0 0.0 0.00 0.55 0.55 99 1019.2
20260903063620 68 223 1.0 1.0 0.00 0.55 0.55 99 1019.3
20260903063115 68 298 0.0 0.0 0.00 0.55 0.55 99 1019.3
20260903062611 68 281 0.0 0.0 0.00 0.55 0.55 99 1019.3
20260903062106 68 290 1.0 1.0 0.00 0.55 0.55 99 1019.3
20260903061601 68 110 0.0 1.0 0.00 0.55 0.55 99 1019.1
20260903061101 68 143 0.0 0.0 0.00 0.55 0.55 99 1018.9
20260903060600 68 103 0.0 1.0 0.07 0.55 0.55 99 1019.1
20260903060056 68 157 0.0 0.0 0.19 0.55 0.55 99 1019.1
20260903055553 68 144 1.0 1.0 0.17 0.54 0.54 99 1019.4
20260903055052 68 101 0.0 1.0 0.12 0.52 0.52 99 1019.1
20260903054547 68 88 2.0 3.0 0.26 0.51 0.51 99 1018.3
20260903054043 68 126 2.0 3.0 1.13 0.50 0.50 99 1018.4
20260903053538 68 129 4.0 5.0 1.51 0.46 0.46 99 1018.4
20260903053034 69 195 0.0 0.0 1.06 0.30 0.30 99 1020.5